Weather in Bolsheustjikinskoe

Russia / Republic of Bashkortostan     55°56′58″N   58°16′02″E
temp.,
°C
wind,
m/s
gust,
m/s
humid.,
%
clouds,
%
prec.,
mm/h
press.,
hPa
HPBL,
m
7 march, sun
sun723:00−16wsw339632 0.0 101323
02:00−19ssw129815 0.0 101320
05:00−18s129757 0.0 101220
08:00−20s119948 0.0 101120
11:00−13nw139073 0.1 1011276
14:00−11nw2379100 0.1 1009804
17:00−10w3482100 0.2 1008719
20:00−16w349161 0.0 100942
8 march, mon
mon823:00−19wsw229830 0.0 101020
02:00−20ssw239936 0.0 101020
05:00−21sse239954 0.0 100920
08:00−18se359699 0.0 1006150
11:00−10s7119099 0.4 1003833
14:00−7ssw81387100 0.3 10001092
17:00−5s81484100 0.4 9991159
20:00−8sw5118067 0.4 999224
9 march, tue
tue923:00−9sw7168338 0.4 1002587
02:00−9sw7168410 0.0 1003618
05:00−12ssw458911 0.0 100566
08:00−15sse23949 0.0 100420
11:00−8se239455 0.4 1002212
14:00−3ssw6993100 0.6 1002808
17:00−5wsw7118285 1.3 10041098
20:00−11w459259 0.1 100680
10 march, wed
wed1023:00−15sw239536 0.1 100920
02:00−17wsw119984 0.0 100820
05:00−17nnw119889 0.1 100820
08:00−17nnw3597100 0.1 1008130
11:00−17nnw4695100 0.1 1008247
14:00−15nnw579086 0.0 1008367
17:00−15nnw598684 0.0 1009415
20:00−21nnw489286 0.0 1012136
11 march, thu
thu1123:00−26nw349472 0.0 101444
02:00−28wnw229515 0.0 101520
05:00−29wsw229623 0.0 101719
08:00−29sw239511 0.0 101719
11:00−21wsw588952 0.0 1017468
14:00−17wsw61086100 0.0 1016713
17:00−17w61087100 0.1 1017734
20:00−19wsw31193100 0.1 1018597